Theta_e
306 306 307 307 307 306 307 307 308 308 308 308 308 306 305 301 301 302 302 303 304 303 300 300 300 301 302 304 305 305 307 307 307 307 308 306 303 303 302 302 302 303 303 303 302
306 306 306 307 307 307 307 308 308 308 308 308 309 307 305 304 303 300 301 303 303 300 300 301 301 301 303 303 303 306 306 305 304 304 304 302 301 302 302 303 304 304 305 304 304
305 304 305 306 307 307 308 308 308 308 308 308 307 304 304 306 302 301 299 301 299 300 301 302 301 302 303 303 303 303 305 303 301 302 302 302 302 303 303 304 304 304 305 305 304
303 303 303 304 307 307 307 308 308 307 305 305 303 303 305 307 304 301 297 298 299 300 302 303 303 303 303 303 303 305 302 301 302 301 301 302 304 304 304 304 305 305 305 304 304
300 302 302 303 304 305 305 305 303 303 302 303 303 300 302 301 300 299 298 298 300 301 302 303 304 304 304 304 304 304 303 303 304 304 304 304 304 304 304 305 305 304 304 304 304
301 302 302 303 303 301 299 299 300 300 301 300 299 298 300 301 300 298 298 299 300 302 302 303 303 303 304 304 305 304 305 304 304 304 304 304 304 304 304 304 304 303 304 304 304
301 301 302 302 302 299 296 300 299 300 299 300 300 300 300 301 300 298 299 299 299 301 302 301 302 304 304 305 303 304 305 305 305 304 303 302 304 304 304 303 303 303 303 303 302
302 301 302 301 301 298 295 299 298 299 299 297 300 302 300 298 298 298 299 300 300 302 302 302 302 304 303 303 303 304 304 307 306 304 303 302 305 305 304 303 303 303 303 301 299
302 301 302 301 300 296 295 299 296 296 298 295 299 300 298 296 298 297 298 300 301 301 301 301 303 303 305 307 308 308 308 307 305 304 303 303 304 304 304 303 302 302 300 298 299
304 301 302 301 299 296 296 300 299 297 297 295 296 300 298 298 297 297 299 299 301 302 304 304 304 307 306 308 308 305 306 305 306 305 303 303 304 304 303 302 302 299 299 299 299
311 304 302 302 300 297 297 299 301 302 298 297 297 297 297 297 296 300 299 300 301 304 307 303 311 307 303 303 303 303 305 306 306 304 302 304 303 303 301 300 300 300 299 298 298
312 310 303 303 300 299 298 300 298 297 301 295 295 296 296 296 300 301 301 303 304 306 304 307 310 302 302 303 303 305 308 308 304 303 303 304 303 303 301 300 299 299 298 298 297
313 312 307 304 300 299 298 297 295 297 302 296 295 296 296 297 299 300 301 301 303 305 304 308 304 301 302 303 304 305 306 305 304 303 303 302 305 303 302 301 299 298 298 297 296
315 313 309 303 302 299 299 295 295 296 310 303 296 296 298 298 301 298 299 301 304 306 303 306 302 301 303 303 302 306 302 302 303 302 308 302 307 303 303 301 299 298 297 296 294
315 313 309 307 300 300 297 295 296 299 323 299 296 294 297 300 299 301 298 301 303 304 302 311 302 303 304 302 301 304 302 302 300 302 303 305 306 303 301 301 298 297 296 295 293
314 312 308 304 299 295 295 295 298 315 323 302 295 296 301 299 300 300 301 300 299 300 302 304 299 299 302 301 301 301 303 304 300 304 310 302 301 302 302 297 297 297 295 294 292
312 311 307 304 300 296 296 298 317 321 299 309 300 296 297 300 300 300 302 303 304 308 311 303 303 299 298 303 302 302 305 307 308 309 307 300 301 304 299 297 297 296 294 293 292
313 310 304 299 295 296 296 307 321 314 314 294 296 296 299 298 300 299 302 305 300 300 302 304 306 304 298 302 303 301 302 304 305 305 304 302 303 302 297 298 296 295 293 292 291
311 303 298 296 297 298 305 316 322 312 297 297 298 300 305 298 298 301 302 304 302 300 304 303 304 297 297 299 300 303 305 299 301 300 300 303 302 301 298 298 296 295 293 291 290
306 300 297 297 298 297 305 315 313 296 296 297 307 298 304 303 301 303 302 301 301 299 298 299 302 300 299 299 299 303 298 303 302 304 303 303 304 303 299 297 296 295 293 291 289
305 302 295 296 297 300 312 312 303 295 296 298 300 299 298 302 300 304 302 300 300 298 298 298 298 303 296 301 304 302 303 301 300 301 303 302 301 299 297 296 295 294 292 290 289
303 306 295 296 303 299 308 305 294 296 295 297 296 296 299 300 301 301 302 300 299 298 299 298 300 301 304 299 298 301 303 300 300 303 301 301 301 299 297 296 295 294 292 290 289
300 298 294 296 308 307 299 297 296 296 296 296 297 296 295 298 300 300 299 297 298 298 298 298 300 302 303 299 297 299 301 300 299 298 300 301 301 301 298 297 295 294 291 290 289
300 305 297 296 299 305 305 305 303 296 296 296 297 295 295 297 297 299 299 297 297 297 296 296 298 299 301 302 297 297 298 299 299 301 302 302 302 300 298 297 294 294 292 290 289
303 306 303 304 303 303 304 305 303 303 297 297 296 296 297 298 297 296 297 298 297 297 297 297 298 296 297 298 297 298 296 295 297 298 299 302 297 298 297 296 294 294 292 290 290
301 302 298 303 301 303 303 305 304 301 299 298 297 297 296 298 298 299 298 298 299 296 297 294 297 290 293 293 293 295 295 297 295 296 297 296 295 296 297 296 295 294 291 289 288
299 299 304 303 302 303 305 305 304 301 301 300 297 297 297 297 297 296 296 295 296 296 296 294 296 294 298 291 292 299 297 297 298 297 297 298 302 296 294 295 294 293 290 288 287
Wind_Speed
9 9 9 10 10 10 10 10 10 9 9 7 7 4 1 12 17 16 16 15 15 20 16 12 7 4 4 3 4 2 5 7 8 5 4 3 7 9 6 13 14 13 14 17 22
9 8 9 10 10 10 10 10 10 10 9 8 7 6 2 4 3 20 15 15 16 16 15 13 8 4 3 2 2 3 4 6 5 6 9 12 11 11 8 14 17 13 14 12 16
10 9 10 10 10 10 11 10 10 10 9 8 7 4 1 5 2 8 18 18 16 15 12 9 4 2 3 2 5 3 3 5 4 6 7 9 14 14 15 15 11 12 15 15 18
11 11 10 11 12 12 11 11 10 9 9 8 5 2 4 2 2 9 16 15 14 13 12 6 4 0 2 1 4 4 2 4 5 4 7 11 13 14 16 21 19 17 17 15 12
11 12 12 12 12 13 13 13 9 7 7 7 3 3 1 4 5 8 14 11 8 11 13 8 10 3 1 2 2 3 4 7 9 11 12 13 17 17 20 18 17 15 12 14 13
11 11 13 14 14 14 15 9 6 5 6 6 5 3 3 2 4 9 12 9 10 11 10 12 5 4 3 2 3 7 10 13 6 7 9 13 18 15 8 5 9 10 12 12 16
12 12 13 15 15 15 14 7 6 4 5 3 3 2 12 5 3 7 11 6 6 8 5 7 6 4 3 1 5 6 7 10 3 4 11 7 20 9 10 8 12 16 17 16 13
12 13 13 15 15 16 13 5 5 5 3 5 3 2 3 1 2 9 12 3 5 5 3 6 4 2 5 2 2 6 2 8 1 3 1 5 12 3 7 13 19 16 12 9 11
11 13 14 15 16 18 14 2 3 6 3 4 2 4 3 2 3 8 9 6 3 2 4 3 2 3 3 5 2 3 7 12 11 8 8 3 17 14 18 15 15 10 6 7 11
11 13 14 15 16 19 15 2 4 6 3 2 2 2 2 5 6 7 8 5 2 1 2 1 1 1 4 7 4 9 10 10 16 10 13 16 22 15 14 11 6 2 5 10 14
10 12 14 15 14 19 14 3 3 3 8 4 3 2 3 10 3 6 9 4 2 1 1 3 1 2 4 5 5 9 12 15 19 16 12 14 22 17 3 1 2 4 10 13 18
11 11 13 14 13 13 10 5 3 2 3 1 1 1 3 6 3 7 10 2 4 2 3 0 1 2 4 5 8 10 11 12 11 5 18 14 17 17 6 3 4 8 13 19 23
12 13 12 14 12 7 7 4 1 2 4 1 2 2 3 6 2 5 8 2 3 2 3 2 3 2 3 6 9 13 5 15 20 25 9 10 12 6 9 6 6 9 18 22 24
13 12 11 11 4 4 3 4 2 2 0 3 2 1 2 3 1 3 5 3 2 2 4 4 1 3 6 4 7 6 13 20 18 9 5 6 7 12 3 5 2 17 21 23 23
15 12 9 7 4 3 3 5 2 2 4 2 2 1 2 3 5 2 1 2 4 1 1 3 3 4 3 2 5 8 19 19 8 5 8 3 5 6 2 4 14 21 24 26 24
11 12 8 4 1 1 4 3 1 2 5 1 2 3 3 2 2 5 2 2 2 3 5 5 2 3 3 10 4 12 12 12 5 3 5 4 6 7 6 8 20 25 26 25 24
9 13 8 4 2 1 3 3 3 3 1 1 1 2 1 3 1 3 1 1 2 3 0 3 2 1 2 6 3 10 10 5 3 4 9 4 8 4 4 9 19 24 25 24 21
13 12 6 3 4 1 3 2 5 0 2 1 1 3 3 2 1 3 3 2 2 2 2 3 2 3 1 2 3 3 3 3 6 9 12 9 5 6 2 10 19 19 21 21 21
14 11 6 3 2 1 1 4 4 1 2 1 2 1 1 2 3 2 3 0 3 0 2 3 3 3 1 1 1 2 2 2 5 6 4 3 6 13 3 14 18 20 22 21 21
14 7 4 3 3 2 3 4 3 1 1 1 2 1 2 2 3 2 2 3 4 1 1 1 6 2 2 2 1 2 2 2 3 6 8 9 11 6 15 19 17 19 19 19 19
7 2 1 4 4 2 3 4 3 1 1 2 2 3 5 2 2 3 1 3 3 4 1 2 1 2 2 6 2 3 3 2 2 4 4 7 5 2 7 12 16 17 17 17 17
5 2 2 5 1 1 2 1 2 2 2 3 3 5 3 3 4 3 2 3 4 5 2 4 2 5 3 3 0 3 3 3 3 1 6 7 9 5 3 8 13 14 16 16 15
3 2 2 2 3 3 1 2 2 4 4 2 3 5 1 3 4 5 3 2 8 6 2 4 3 5 4 2 2 4 6 8 4 4 11 6 6 6 4 11 12 13 14 14 15
3 2 1 1 1 1 2 4 4 3 3 3 3 3 4 4 5 3 3 4 7 5 3 3 4 6 8 6 2 7 9 10 9 6 11 14 19 16 6 8 10 13 12 13 13
2 3 3 4 5 7 4 3 4 4 4 7 3 11 7 4 3 5 7 3 6 6 5 3 5 6 14 16 15 16 15 13 15 17 8 15 8 15 12 7 5 10 10 12 13
4 3 1 3 3 10 8 6 7 4 8 6 7 5 12 5 6 2 4 6 5 8 7 4 2 3 6 6 6 12 17 16 15 16 19 21 24 13 2 3 6 8 10 11 12
3 2 1 7 6 6 6 7 8 8 10 4 10 5 8 12 11 4 2 2 2 6 10 5 3 1 6 4 9 8 8 10 7 9 7 8 6 5 3 5 4 7 8 10 11
Wind_Direction
12 5 9 3 1 355 348 348 352 352 350 348 350 359 298 69 54 44 33 347 339 339 358 349 7 25 48 63 21 303 244 262 270 286 320 350 324 312 318 274 279 270 276 297 304
4 4 1 358 357 358 354 351 346 344 345 342 341 339 286 208 356 39 3 356 346 351 355 4 10 14 68 48 26 285 263 351 10 321 294 314 306 312 300 295 283 277 271 297 321
356 351 355 357 359 355 350 345 342 341 339 336 338 339 292 165 216 17 358 356 356 360 348 336 330 343 70 20 16 354 302 4 336 325 313 300 291 284 272 275 280 323 310 313 317
2 3 4 4 355 351 348 342 342 342 347 349 351 47 115 201 5 358 351 354 1 0 10 350 352 79 93 41 5 286 311 300 305 303 291 283 297 284 272 271 302 307 307 310 312
359 3 2 3 358 353 347 338 340 349 4 7 25 129 6 82 50 344 352 354 3 10 20 12 29 355 120 349 308 268 328 289 275 289 283 294 287 279 278 289 297 300 299 300 300
3 3 1 359 357 355 351 352 358 10 24 35 37 75 266 94 344 352 354 6 13 11 24 32 21 359 66 10 318 328 307 294 294 308 301 292 289 284 257 289 276 285 284 292 298
1 4 3 360 355 356 356 9 11 15 10 1 354 58 60 81 355 353 356 13 9 9 15 27 4 338 324 272 343 322 324 300 245 270 303 325 283 222 256 250 288 301 300 301 328
357 359 0 359 356 354 355 1 7 356 348 352 13 323 77 354 332 352 358 33 38 27 22 11 17 16 358 323 241 329 291 329 139 247 307 310 285 261 302 301 295 304 304 336 323
354 356 357 358 358 354 350 314 357 352 335 2 343 289 82 350 342 336 352 357 2 25 22 5 352 23 286 322 254 61 311 313 328 230 317 256 295 298 303 303 300 307 335 307 310
346 351 352 355 359 359 355 308 309 2 334 315 71 205 84 348 312 321 356 18 348 323 222 279 276 6 17 8 1 316 310 306 306 309 315 292 284 297 315 309 303 317 297 314 321
332 343 345 351 354 2 2 339 243 188 38 42 21 328 346 334 284 2 359 336 326 89 336 56 112 18 357 357 324 311 309 300 301 314 303 295 296 293 351 174 206 304 324 323 320
315 329 337 343 348 355 17 42 72 289 291 28 6 355 321 328 272 23 4 27 47 40 344 60 192 49 310 305 314 309 298 297 313 263 322 296 292 294 206 251 290 324 327 322 323
298 312 326 339 341 6 53 59 338 313 262 127 15 318 317 317 327 4 5 29 59 39 27 290 57 327 290 321 332 328 296 315 310 322 274 296 271 192 214 236 274 314 328 329 328
284 295 310 329 349 355 32 359 357 10 29 207 180 139 254 294 212 12 25 345 197 13 354 280 101 302 306 284 353 311 347 316 315 322 308 21 291 318 140 239 287 332 332 330 333
268 274 289 327 333 18 336 339 17 309 298 163 135 338 318 328 334 105 351 237 306 19 108 67 281 289 267 338 340 268 319 304 312 282 312 165 265 326 197 317 330 327 333 338 333
259 256 260 293 12 7 336 330 281 356 249 150 312 342 353 352 11 312 254 231 337 273 216 259 326 263 313 315 295 311 303 296 249 251 256 103 5 291 9 338 326 331 338 335 330
255 243 228 230 155 255 348 292 339 204 76 285 327 6 18 306 293 334 320 132 351 321 44 261 204 183 302 324 157 354 331 327 296 288 307 156 311 318 16 323 335 329 330 332 330
233 226 200 194 177 139 55 52 230 239 240 55 266 273 280 10 195 302 252 207 105 304 291 324 267 187 45 12 310 346 337 1 308 320 312 298 243 317 202 331 335 328 333 332 333
227 163 142 153 167 145 107 249 251 294 51 222 234 302 189 222 273 311 251 305 64 49 305 298 253 142 152 342 242 96 312 16 268 254 268 236 253 271 224 340 334 336 339 336 335
165 144 119 160 143 117 89 242 256 352 85 312 224 212 275 213 267 240 198 123 148 168 131 102 288 136 132 207 140 274 73 253 199 299 310 308 295 281 344 335 338 340 341 335 334
141 96 142 140 116 47 208 230 273 251 294 251 289 267 236 270 255 254 81 144 151 159 143 158 248 156 199 201 184 181 212 213 285 265 302 311 321 83 342 341 342 338 339 336 335
145 160 146 137 102 47 244 235 351 215 208 245 270 250 232 197 238 259 238 238 150 163 214 176 291 271 263 146 21 225 252 223 268 237 257 272 278 145 16 14 352 339 338 335 335
110 103 56 66 200 198 130 293 265 211 209 195 247 237 199 232 243 220 220 126 175 191 214 173 205 294 212 148 169 235 227 225 260 280 256 275 277 185 14 10 350 338 340 335 337
142 147 99 67 302 291 137 237 238 236 214 177 267 234 205 224 225 293 240 180 190 202 199 211 249 243 261 316 348 257 249 228 229 259 269 246 278 293 355 337 342 335 340 336 340
168 212 156 177 223 196 187 206 208 230 226 195 230 223 200 224 206 228 230 183 194 198 190 232 261 264 264 269 270 267 260 247 234 232 249 272 285 290 312 292 292 301 335 338 345
150 155 207 154 148 184 187 213 217 193 170 218 227 201 213 229 214 223 194 209 207 186 192 207 272 327 283 277 276 273 261 243 232 249 250 263 279 272 202 274 279 307 335 332 341
183 179 208 160 168 173 199 219 218 179 210 231 214 202 229 245 256 308 277 350 255 182 191 182 236 285 269 342 314 272 240 203 206 203 211 220 242 151 216 231 286 307 334 323 330